Sioux Falls, SD

3:22 PM CST on December 13, 2019 (GMT -0600)
Foss

Weather History for KFSD - July, 2019

Change the Weather History Date:

Tuesday, July 16, 2019

  Actual Average Record
Temperature  
Mean Temperature 81 °F 73 °F  
Max Temperature 89 °F 84 °F 105 °F (1926)
Min Temperature 73 °F 62 °F 46 °F (1896)
Degree Days  
Heating Degree Days 0 0  
Month to date heating degree days 0 0  
Since 1 June heating degree days 20 51  
Since 1 July heating degree days 0 0  
Cooling Degree Days 16 9  
Month to date cooling degree days 196 131  
Year to date cooling degree days 400 302  
Since 1 June cooling degree days 385 266  
Growing Degree Days 31 (Base 50)    
Moisture  
Dew Point 70 °F    
Average Humidity 75    
Maximum Humidity 94    
Minimum Humidity 55    
Precipitation  
Precipitation 0.01 in 0.10 in 1.64 in (1915)
Month to date precipitation 2.99 1.63  
Year to date precipitation 23.42 14.88  
Snow  
Snow 0.00 in 0.00 in 0.00 in ()
Month to date snowfall 0.0 0.0  
Since 1 June snowfall T 0.0  
Since 1 July snowfall 0.0 0.0  
Snow Depth 0.00 in    
Sea Level Pressure  
Sea Level Pressure 29.85 in    
Wind  
Wind Speed 6 mph (East)    
Max Wind Speed 15 mph    
Max Gust Speed 23 mph    
Visibility 9 miles    
Events Rain , Thunderstorm    
T = Trace of Precipitation, MM = Missing Value Source: NWS Daily Summary

Daily Weather History Graph

Daily Weather History Graph

Search for Another Location

Airport or City:

Astronomy

Jul. 16, 2019 Rise Set
Actual Time 6:00 AM CDT 9:05 PM CDT
Civil Twilight 5:25 AM CDT 9:39 PM CDT
Nautical Twilight 4:41 AM CDT 10:23 PM CDT
Astronomical Twilight 3:48 AM CDT 11:16 PM CDT
Moon 9:12 PM CDT (7/16) 5:38 AM CDT (7/16)
Length of Visible Light 16h 14m
Length of Day
15h 05m
Full, 100% of the Moon is Illuminated
Jul 16
Full
Jul 16
Full
Jul 24
Last Quarter
Jul 31
New
Aug 7
First Quarter

Hourly Weather History & Observations

Time (CDT) Temp. Heat Index Dew Point Humidity Pressure Visibility Wind Dir Wind Speed Gust Speed Precip Events Conditions
12:56 AM 77.0 °F - 73.9 °F 90% 29.82 in 10.0 mi North 3.5 mph - N/A   Clear
1:56 AM 75.9 °F - 73.0 °F 91% 29.82 in 9.0 mi North 4.6 mph - N/A   Clear
2:56 AM 75.0 °F - 73.0 °F 94% 29.81 in 9.0 mi Calm Calm - N/A   Clear
3:56 AM 73.9 °F - 72.0 °F 93% 29.81 in 5.0 mi Calm Calm - 0.00 in   Clear
4:56 AM 73.9 °F - 72.0 °F 93% 29.82 in 6.0 mi Calm Calm - N/A   Overcast
5:10 AM 73.9 °F - 72.0 °F 93% 29.86 in 6.0 mi NNE 3.5 mph - N/A   Overcast
5:44 AM 73.9 °F - 72.0 °F 93% 29.86 in 6.0 mi Variable 5.8 mph - N/A   Overcast
5:56 AM 75.0 °F - 72.0 °F 90% 29.83 in 8.0 mi NW 4.6 mph - N/A   Overcast
6:10 AM 73.9 °F - 71.1 °F 91% 29.85 in 6.0 mi WNW 5.8 mph - N/A   Overcast
6:56 AM 75.0 °F - 69.1 °F 82% 29.83 in 10.0 mi WNW 5.8 mph - N/A   Overcast
7:56 AM 73.9 °F - 68.0 °F 82% 29.86 in 10.0 mi West 8.1 mph - N/A   Overcast
8:18 AM 75.0 °F - 68.0 °F 79% 29.90 in 10.0 mi West 8.1 mph - 0.00 in Rain , Thunderstorm Light Thunderstorms and Rain
8:56 AM 75.0 °F - 68.0 °F 79% 29.89 in 9.0 mi Variable 3.5 mph - 0.00 in Rain , Thunderstorm Light Thunderstorms and Rain
9:10 AM 75.0 °F - 68.0 °F 79% 29.89 in 10.0 mi NNW 5.8 mph - 0.00 in Rain , Thunderstorm Light Rain
9:14 AM 73.9 °F - 68.0 °F 82% 29.89 in 10.0 mi NW 8.1 mph - 0.00 in Rain Light Rain
9:56 AM 75.0 °F - 69.1 °F 82% 29.86 in 10.0 mi NW 10.4 mph - 0.01 in Rain Light Rain
10:56 AM 79.0 °F - 70.0 °F 74% 29.86 in 10.0 mi Calm Calm - 0.00 in   Mostly Cloudy
11:56 AM 80.1 °F 83.8 °F 72.0 °F 76% 29.88 in 10.0 mi East 10.4 mph - N/A   Mostly Cloudy
12:56 PM 82.9 °F 88.0 °F 72.0 °F 69% 29.88 in 10.0 mi ENE 4.6 mph - N/A   Mostly Cloudy
1:56 PM 84.9 °F 91.4 °F 73.0 °F 67% 29.86 in 10.0 mi East 5.8 mph - N/A   Scattered Clouds
2:56 PM 86.0 °F 91.5 °F 71.1 °F 61% 29.85 in 10.0 mi SE 6.9 mph - N/A   Scattered Clouds
3:56 PM 87.1 °F 92.0 °F 70.0 °F 57% 29.85 in 10.0 mi SE 5.8 mph - N/A   Scattered Clouds
4:56 PM 84.9 °F 90.1 °F 71.1 °F 63% 29.84 in 10.0 mi East 8.1 mph - N/A   Partly Cloudy
5:56 PM 87.1 °F 92.0 °F 70.0 °F 57% 29.83 in 10.0 mi East 8.1 mph - N/A   Partly Cloudy
6:56 PM 84.9 °F 89.4 °F 70.0 °F 61% 29.83 in 10.0 mi SE 11.5 mph - N/A   Partly Cloudy
7:56 PM 82.9 °F 86.5 °F 69.1 °F 63% 29.83 in 10.0 mi SE 10.4 mph - N/A   Partly Cloudy
8:56 PM 80.1 °F 82.3 °F 66.9 °F 64% 29.86 in 10.0 mi SE 10.4 mph - N/A   Partly Cloudy
9:56 PM 79.0 °F - 64.0 °F 60% 29.87 in 10.0 mi SE 10.4 mph - N/A   Partly Cloudy
10:56 PM 78.8 °F - 64.4 °F 61% 29.88 in 10.0 mi SE 6.9 mph - N/A   Partly Cloudy
11:56 PM 75.0 °F - 66.9 °F 76% 29.86 in 10.0 mi SE 6.9 mph - N/A   Clear